Time,TemperatureF,DewpointF,PressureIn,WindDirection,WindDirectionDegrees,WindSpeedMPH,WindSpeedGustMPH,Humidity,HourlyPrecipIn,Conditions,Clouds,dailyrainin,SoftwareType,DateUTC
2013-03-26 09:26:00,34.0,30.8,29.80,NW,317,3.0,20.0,88,0.00,,,0.00,Wunderground v.1.15,2013-03-26 13:26:00,
2013-03-26 09:29:00,33.9,31.0,29.80,NW,323,4.0,20.0,89,0.00,,,0.00,Wunderground v.1.15,2013-03-26 13:29:00,
2013-03-26 09:31:00,33.9,31.0,29.80,NW,323,4.0,20.0,89,0.00,,,0.00,Wunderground v.1.15,2013-03-26 13:31:00,
2013-03-26 09:32:00,33.9,31.0,29.80,NW,323,3.0,20.0,89,0.00,,,0.00,Wunderground v.1.15,2013-03-26 13:32:00,
2013-03-26 09:38:00,33.9,31.3,29.80,NNW,327,3.0,20.0,90,0.00,,,0.00,Wunderground v.1.15,2013-03-26 13:38:00,
2013-03-26 09:44:00,33.9,31.3,29.80,NNW,333,5.0,20.0,90,0.00,,,0.01,Wunderground v.1.15,2013-03-26 13:44:00,
2013-03-26 09:49:00,34.0,31.4,29.80,NNW,346,5.0,20.0,90,0.00,,,0.01,Wunderground v.1.15,2013-03-26 13:49:00,
2013-03-26 09:55:00,34.3,31.7,29.80,NW,321,4.0,20.0,90,0.00,,,0.01,Wunderground v.1.15,2013-03-26 13:55:00,
2013-03-26 10:01:00,34.4,31.8,29.80,NW,311,4.0,20.0,90,0.00,,,0.01,Wunderground v.1.15,2013-03-26 14:01:00,
2013-03-26 10:07:00,34.4,31.8,29.80,NNW,338,4.0,20.0,90,0.00,,,0.01,Wunderground v.1.15,2013-03-26 14:07:00,
2013-03-26 10:13:00,34.1,31.5,29.80,NNW,344,5.0,20.0,90,0.00,,,0.01,Wunderground v.1.15,2013-03-26 14:13:00,
2013-03-26 10:18:00,33.9,31.3,29.80,NNW,345,5.0,20.0,90,0.00,,,0.01,Wunderground v.1.15,2013-03-26 14:18:00,
2013-03-26 10:23:00,34.1,31.5,29.80,NW,319,4.0,20.0,90,0.00,,,0.01,Wunderground v.1.15,2013-03-26 14:23:00,
2013-03-26 10:29:00,34.4,31.8,29.80,North,5,5.0,20.0,90,0.00,,,0.01,Wunderground v.1.15,2013-03-26 14:29:00,
2013-03-26 10:34:00,35.0,32.6,29.80,NW,304,4.0,20.0,91,0.00,,,0.01,Wunderground v.1.15,2013-03-26 14:34:00,
2013-03-26 10:40:00,35.6,32.4,29.80,NNW,335,4.0,20.0,88,0.00,,,0.00,Wunderground v.1.15,2013-03-26 14:40:00,
2013-03-26 10:46:00,35.6,31.8,29.80,NW,319,6.0,20.0,86,0.00,,,0.00,Wunderground v.1.15,2013-03-26 14:46:00,
2013-03-26 10:52:00,35.7,31.6,29.81,NW,320,6.0,20.0,85,0.00,,,0.00,Wunderground v.1.15,2013-03-26 14:52:00,
2013-03-26 10:57:00,36.4,32.6,29.81,NW,320,6.0,20.0,86,0.00,,,0.00,Wunderground v.1.15,2013-03-26 14:57:00,
2013-03-26 11:03:00,36.8,32.1,29.80,NW,322,5.0,20.0,83,0.00,,,0.00,Wunderground v.1.15,2013-03-26 15:03:00,
2013-03-26 11:09:00,37.1,32.4,29.81,WNW,301,5.0,20.0,83,0.00,,,0.00,Wunderground v.1.15,2013-03-26 15:09:00,
2013-03-26 11:15:00,37.4,32.1,29.81,NW,315,5.0,20.0,81,0.00,,,0.00,Wunderground v.1.15,2013-03-26 15:15:00,
2013-03-26 11:21:00,38.2,32.9,29.81,NNW,330,4.0,20.0,81,0.00,,,0.00,Wunderground v.1.15,2013-03-26 15:21:00,
2013-03-26 11:27:00,37.9,31.7,29.81,NNE,19,4.0,20.0,78,0.00,,,0.00,Wunderground v.1.15,2013-03-26 15:27:00,
2013-03-26 11:33:00,38.3,32.0,29.81,NW,306,3.0,20.0,78,0.00,,,0.00,Wunderground v.1.15,2013-03-26 15:33:00,
2013-03-26 11:39:00,38.1,31.8,29.81,NNW,341,4.0,20.0,78,0.00,,,0.00,Wunderground v.1.15,2013-03-26 15:39:00,
2013-03-26 11:44:00,37.9,31.3,29.81,NNW,331,5.0,20.0,77,0.00,,,0.00,Wunderground v.1.15,2013-03-26 15:44:00,
2013-03-26 11:50:00,38.7,31.8,29.81,NNE,17,5.0,20.0,76,0.00,,,0.00,Wunderground v.1.15,2013-03-26 15:50:00,
2013-03-26 11:56:00,38.9,32.0,29.81,NNW,335,5.0,20.0,76,0.00,,,0.00,Wunderground v.1.15,2013-03-26 15:56:00,
2013-03-26 12:01:00,39.2,31.6,29.81,NNW,345,4.0,20.0,74,0.00,,,0.00,Wunderground v.1.15,2013-03-26 16:01:00,
2013-03-26 12:07:00,39.2,31.6,29.81,NNW,343,4.0,20.0,74,0.00,,,0.00,Wunderground v.1.15,2013-03-26 16:07:00,
2013-03-26 12:13:00,39.1,31.2,29.81,NW,306,4.0,20.0,73,0.00,,,0.00,Wunderground v.1.15,2013-03-26 16:13:00,
2013-03-26 12:19:00,39.5,31.9,29.81,NNW,328,3.0,20.0,74,0.00,,,0.00,Wunderground v.1.15,2013-03-26 16:19:00,
2013-03-26 12:25:00,39.2,32.6,29.81,NW,325,4.0,20.0,77,0.00,,,0.00,Wunderground v.1.15,2013-03-26 16:25:00,
2013-03-26 12:30:00,39.4,31.1,29.81,NW,325,4.0,4.0,72,0.00,,,0.00,Wunderground v.1.15,2013-03-26 16:30:00,
2013-03-26 12:36:00,40.0,31.4,29.81,North,9,4.0,20.0,71,0.00,,,0.00,Wunderground v.1.15,2013-03-26 16:36:00,
2013-03-26 12:41:00,39.6,30.3,29.81,NNE,27,5.0,20.0,69,0.00,,,0.00,Wunderground v.1.15,2013-03-26 16:41:00,
2013-03-26 12:47:00,39.1,30.1,29.81,NNW,344,6.0,20.0,70,0.00,,,0.00,Wunderground v.1.15,2013-03-26 16:47:00,
2013-03-26 12:52:00,39.5,31.2,29.81,NNW,336,6.0,20.0,72,0.00,,,0.00,Wunderground v.1.15,2013-03-26 16:52:00,
2013-03-26 12:58:00,40.4,31.4,29.81,North,5,4.0,20.0,70,0.00,,,0.00,Wunderground v.1.15,2013-03-26 16:58:00,
2013-03-26 13:03:00,40.7,31.3,29.82,WNW,295,5.0,20.0,69,0.00,,,0.00,Wunderground v.1.15,2013-03-26 17:03:00,
2013-03-26 13:08:00,41.2,31.1,29.82,North,355,5.0,20.0,67,0.00,,,0.00,Wunderground v.1.15,2013-03-26 17:08:00,
2013-03-26 13:14:00,41.7,30.8,29.82,NW,325,5.0,20.0,65,0.00,,,0.00,Wunderground v.1.15,2013-03-26 17:14:00,
2013-03-26 13:19:00,42.1,31.2,29.81,NW,310,5.0,20.0,65,0.00,,,0.00,Wunderground v.1.15,2013-03-26 17:19:00,
2013-03-26 13:24:00,41.8,30.1,29.81,WNW,295,5.0,20.0,63,0.00,,,0.00,Wunderground v.1.15,2013-03-26 17:24:00,
2013-03-26 13:30:00,41.2,29.9,29.82,NW,326,5.0,20.0,64,0.00,,,0.00,Wunderground v.1.15,2013-03-26 17:30:00,
2013-03-26 13:35:00,40.9,29.3,29.81,NNE,13,4.0,20.0,63,0.00,,,0.00,Wunderground v.1.15,2013-03-26 17:35:00,
2013-03-26 13:41:00,40.1,28.5,29.82,NW,319,6.0,20.0,63,0.00,,,0.00,Wunderground v.1.15,2013-03-26 17:41:00,
2013-03-26 13:47:00,40.1,28.5,29.81,NW,325,5.0,20.0,63,0.00,,,0.00,Wunderground v.1.15,2013-03-26 17:47:00,
2013-03-26 13:52:00,40.4,28.4,29.82,NW,304,4.0,20.0,62,0.00,,,0.00,Wunderground v.1.15,2013-03-26 17:52:00,
2013-03-26 13:58:00,40.2,27.8,29.81,NNE,29,5.0,20.0,61,0.00,,,0.00,Wunderground v.1.15,2013-03-26 17:58:00,
2013-03-26 14:03:00,40.0,28.4,29.81,NNE,29,5.0,20.0,63,0.00,,,0.00,Wunderground v.1.15,2013-03-26 18:03:00,
2013-03-26 14:08:00,40.1,28.1,29.82,NE,38,3.0,20.0,62,0.00,,,0.00,Wunderground v.1.15,2013-03-26 18:08:00,
2013-03-26 14:13:00,39.8,27.0,29.82,ENE,67,5.0,20.0,60,0.00,,,0.00,Wunderground v.1.15,2013-03-26 18:13:00,
2013-03-26 14:19:00,39.7,27.3,29.82,NNE,24,5.0,20.0,61,0.00,,,0.00,Wunderground v.1.15,2013-03-26 18:19:00,
2013-03-26 14:24:00,39.7,27.7,29.81,NE,44,3.0,20.0,62,0.00,,,0.00,Wunderground v.1.15,2013-03-26 18:24:00,
2013-03-26 14:30:00,39.8,27.8,29.81,NE,50,2.0,2.0,62,0.00,,,0.00,Wunderground v.1.15,2013-03-26 18:30:00,
2013-03-26 14:35:00,39.8,27.8,29.81,NNE,17,4.0,20.0,62,0.00,,,0.00,Wunderground v.1.15,2013-03-26 18:35:00,
2013-03-26 14:40:00,39.9,28.3,29.81,NNE,22,4.0,4.0,63,0.00,,,0.00,Wunderground v.1.15,2013-03-26 18:40:00,
2013-03-26 14:45:00,39.8,28.2,29.81,NE,40,3.0,20.0,63,0.00,,,0.00,Wunderground v.1.15,2013-03-26 18:45:00,
2013-03-26 14:52:00,39.6,26.8,29.82,NNE,26,6.0,20.0,60,0.00,,,0.00,Wunderground v.1.15,2013-03-26 18:52:00,
2013-03-26 14:58:00,39.1,26.8,29.83,NNE,23,8.0,20.0,61,0.00,,,0.00,Wunderground v.1.15,2013-03-26 18:58:00,
2013-03-26 15:03:00,38.7,26.4,29.83,NNE,21,8.0,20.0,61,0.00,,,0.00,Wunderground v.1.15,2013-03-26 19:03:00,
2013-03-26 15:08:00,38.3,26.4,29.83,NNE,15,7.0,20.0,62,0.00,,,0.00,Wunderground v.1.15,2013-03-26 19:08:00,
2013-03-26 15:14:00,37.9,27.2,29.83,NE,35,6.0,20.0,65,0.00,,,0.00,Wunderground v.1.15,2013-03-26 19:14:00,
2013-03-26 15:19:00,37.7,27.4,29.83,ENE,63,6.0,20.0,66,0.00,,,0.00,Wunderground v.1.15,2013-03-26 19:19:00,
2013-03-26 15:25:00,37.7,27.4,29.83,East,98,5.0,20.0,66,0.00,,,0.00,Wunderground v.1.15,2013-03-26 19:25:00,
2013-03-26 15:31:00,38.0,28.7,29.83,ENE,63,4.0,20.0,69,0.00,,,0.00,Wunderground v.1.15,2013-03-26 19:31:00,
2013-03-26 15:38:00,38.1,28.8,29.83,ESE,103,5.0,20.0,69,0.00,,,0.00,Wunderground v.1.15,2013-03-26 19:38:00,
2013-03-26 15:44:00,38.2,28.9,29.82,ESE,113,4.0,20.0,69,0.00,,,0.00,Wunderground v.1.15,2013-03-26 19:44:00,
2013-03-26 15:49:00,38.6,29.7,29.83,East,91,1.0,20.0,70,0.00,,,0.00,Wunderground v.1.15,2013-03-26 19:49:00,
2013-03-26 15:54:00,39.1,29.4,29.83,NE,38,2.0,20.0,68,0.00,,,0.00,Wunderground v.1.15,2013-03-26 19:54:00,
2013-03-26 16:00:00,39.3,28.9,29.83,NNE,32,3.0,20.0,66,0.00,,,0.00,Wunderground v.1.15,2013-03-26 20:00:00,
2013-03-26 16:06:00,39.8,29.0,29.83,NNE,24,3.0,20.0,65,0.00,,,0.00,Wunderground v.1.15,2013-03-26 20:06:00,
2013-03-26 16:12:00,40.2,29.0,29.83,NNE,24,2.0,20.0,64,0.00,,,0.00,Wunderground v.1.15,2013-03-26 20:12:00,
2013-03-26 16:17:00,40.4,29.2,29.83,North,9,2.0,20.0,64,0.00,,,0.00,Wunderground v.1.15,2013-03-26 20:17:00,
2013-03-26 16:23:00,40.6,27.8,29.83,NNE,17,4.0,20.0,60,0.00,,,0.00,Wunderground v.1.15,2013-03-26 20:23:00,
2013-03-26 16:28:00,40.6,29.4,29.82,WNW,286,3.0,20.0,64,0.00,,,0.00,Wunderground v.1.15,2013-03-26 20:28:00,
2013-03-26 16:34:00,41.1,29.8,29.83,WNW,286,1.0,20.0,64,0.00,,,0.00,Wunderground v.1.15,2013-03-26 20:34:00,
2013-03-26 16:39:00,41.1,29.8,29.83,WNW,300,0.0,20.0,64,0.00,,,0.00,Wunderground v.1.15,2013-03-26 20:39:00,
2013-03-26 16:45:00,41.1,29.5,29.83,WNW,300,1.0,20.0,63,0.00,,,0.00,Wunderground v.1.15,2013-03-26 20:45:00,
2013-03-26 16:51:00,41.3,29.3,29.83,WNW,300,1.0,20.0,62,0.00,,,0.00,Wunderground v.1.15,2013-03-26 20:51:00,
2013-03-26 16:57:00,41.6,29.9,29.83,WNW,296,3.0,20.0,63,0.00,,,0.00,Wunderground v.1.15,2013-03-26 20:57:00,
2013-03-26 17:02:00,42.0,30.3,29.83,WNW,296,3.0,20.0,63,0.00,,,0.00,Wunderground v.1.15,2013-03-26 21:02:00,
2013-03-26 17:08:00,41.7,29.2,29.83,WNW,296,3.0,20.0,61,0.00,,,0.00,Wunderground v.1.15,2013-03-26 21:08:00,
2013-03-26 17:14:00,41.0,29.0,29.83,WNW,296,4.0,20.0,62,0.00,,,0.00,Wunderground v.1.15,2013-03-26 21:14:00,
2013-03-26 17:19:00,40.6,29.0,29.83,WNW,296,3.0,20.0,63,0.00,,,0.00,Wunderground v.1.15,2013-03-26 21:19:00,
2013-03-26 17:25:00,40.5,29.3,29.83,WNW,296,2.0,20.0,64,0.00,,,0.00,Wunderground v.1.15,2013-03-26 21:25:00,
2013-03-26 17:31:00,40.5,28.9,29.83,WNW,296,2.0,20.0,63,0.00,,,0.00,Wunderground v.1.15,2013-03-26 21:31:00,
2013-03-26 17:37:00,40.3,28.3,29.83,WNW,296,3.0,20.0,62,0.00,,,0.00,Wunderground v.1.15,2013-03-26 21:37:00,
2013-03-26 17:42:00,40.2,27.8,29.84,WNW,296,3.0,20.0,61,0.00,,,0.00,Wunderground v.1.15,2013-03-26 21:42:00,
2013-03-26 17:48:00,40.2,28.2,29.84,WNW,296,2.0,20.0,62,0.00,,,0.00,Wunderground v.1.15,2013-03-26 21:48:00,
2013-03-26 17:54:00,40.4,28.4,29.84,WNW,294,1.0,20.0,62,0.00,,,0.00,Wunderground v.1.15,2013-03-26 21:54:00,
2013-03-26 17:59:00,40.8,28.4,29.84,WNW,294,2.0,20.0,61,0.00,,,0.00,Wunderground v.1.15,2013-03-26 21:59:00,
2013-03-26 18:04:00,41.0,27.8,29.84,WNW,293,2.0,20.0,59,0.00,,,0.00,Wunderground v.1.15,2013-03-26 22:04:00,
2013-03-26 18:10:00,41.0,27.8,29.85,WNW,293,2.0,2.0,59,0.00,,,0.00,Wunderground v.1.15,2013-03-26 22:10:00,
2013-03-26 18:15:00,40.9,27.2,29.85,WNW,293,2.0,20.0,58,0.00,,,0.00,Wunderground v.1.15,2013-03-26 22:15:00,
2013-03-26 18:21:00,40.7,26.6,29.85,WNW,293,2.0,20.0,57,0.00,,,0.00,Wunderground v.1.15,2013-03-26 22:21:00,
2013-03-26 18:26:00,40.7,27.1,29.85,WNW,293,1.0,20.0,58,0.00,,,0.00,Wunderground v.1.15,2013-03-26 22:26:00,
2013-03-26 18:31:00,40.6,27.0,29.85,WNW,293,0.0,20.0,58,0.00,,,0.00,Wunderground v.1.15,2013-03-26 22:31:00,
2013-03-26 18:37:00,40.4,27.2,29.85,WNW,293,0.0,20.0,59,0.00,,,0.00,Wunderground v.1.15,2013-03-26 22:37:00,
2013-03-26 18:42:00,40.3,26.7,29.85,WNW,293,1.0,20.0,58,0.00,,,0.00,Wunderground v.1.15,2013-03-26 22:42:00,
2013-03-26 18:48:00,40.5,26.9,29.86,WNW,293,1.0,20.0,58,0.00,,,0.00,Wunderground v.1.15,2013-03-26 22:48:00,
2013-03-26 18:54:00,40.4,27.6,29.86,WNW,293,0.0,20.0,60,0.00,,,0.00,Wunderground v.1.15,2013-03-26 22:54:00,
2013-03-26 18:59:00,40.2,27.4,29.86,WNW,293,0.0,20.0,60,0.00,,,0.00,Wunderground v.1.15,2013-03-26 22:59:00,
2013-03-26 19:05:00,39.7,27.3,29.86,WNW,293,0.0,20.0,61,0.00,,,0.00,Wunderground v.1.15,2013-03-26 23:05:00,
2013-03-26 19:11:00,39.1,26.8,29.86,WNW,293,0.0,20.0,61,0.00,,,0.00,Wunderground v.1.15,2013-03-26 23:11:00,
2013-03-26 19:17:00,38.6,26.7,29.86,WNW,293,0.0,20.0,62,0.00,,,0.00,Wunderground v.1.15,2013-03-26 23:17:00,
2013-03-26 19:23:00,38.2,26.3,29.86,WNW,293,0.0,20.0,62,0.00,,,0.00,Wunderground v.1.15,2013-03-26 23:23:00,
2013-03-26 19:29:00,37.8,26.7,29.86,WNW,293,0.0,20.0,64,0.00,,,0.00,Wunderground v.1.15,2013-03-26 23:29:00,
2013-03-26 19:34:00,37.4,27.1,29.86,WNW,293,0.0,20.0,66,0.00,,,0.00,Wunderground v.1.15,2013-03-26 23:34:00,
2013-03-26 19:39:00,37.0,27.1,29.87,WNW,293,0.0,20.0,67,0.00,,,0.00,Wunderground v.1.15,2013-03-26 23:39:00,
2013-03-26 19:44:00,36.5,26.6,29.87,WNW,293,0.0,20.0,67,0.00,,,0.00,Wunderground v.1.15,2013-03-26 23:44:00,
2013-03-26 19:49:00,36.1,26.2,29.87,WNW,293,0.0,20.0,67,0.00,,,0.00,Wunderground v.1.15,2013-03-26 23:49:00,
2013-03-26 19:55:00,35.7,26.5,29.87,WNW,293,0.0,20.0,69,0.00,,,0.00,Wunderground v.1.15,2013-03-26 23:55:00,
2013-03-26 20:00:00,35.0,26.5,29.87,WNW,293,0.0,20.0,71,0.00,,,0.00,Wunderground v.1.15,2013-03-27 00:00:00,
2013-03-26 20:05:00,34.6,26.5,29.87,WNW,293,0.0,20.0,72,0.00,,,0.00,Wunderground v.1.15,2013-03-27 00:05:00,
2013-03-26 20:11:00,34.3,26.5,29.88,WNW,293,0.0,20.0,73,0.00,,,0.00,Wunderground v.1.15,2013-03-27 00:11:00,
2013-03-26 20:17:00,34.0,26.6,29.88,WNW,293,0.0,20.0,74,0.00,,,0.00,Wunderground v.1.15,2013-03-27 00:17:00,
2013-03-26 20:23:00,33.9,26.2,29.88,WNW,293,0.0,20.0,73,0.00,,,0.00,Wunderground v.1.15,2013-03-27 00:23:00,
2013-03-26 20:28:00,33.9,26.5,29.88,WNW,293,0.0,20.0,74,0.00,,,0.00,Wunderground v.1.15,2013-03-27 00:28:00,
2013-03-26 20:34:00,33.5,26.4,29.88,WNW,293,0.0,20.0,75,0.00,,,0.00,Wunderground v.1.15,2013-03-27 00:34:00,
2013-03-26 20:40:00,33.0,25.9,29.89,WNW,293,0.0,20.0,75,0.00,,,0.00,Wunderground v.1.15,2013-03-27 00:40:00,
2013-03-26 20:45:00,32.6,25.9,29.89,WNW,293,0.0,20.0,76,0.00,,,0.00,Wunderground v.1.15,2013-03-27 00:45:00,
2013-03-26 20:51:00,32.2,25.8,29.89,WNW,293,0.0,20.0,77,0.00,,,0.00,Wunderground v.1.15,2013-03-27 00:51:00,
2013-03-26 20:56:00,32.0,25.9,29.89,WNW,293,0.0,20.0,78,0.00,,,0.00,Wunderground v.1.15,2013-03-27 00:56:00,
2013-03-26 21:02:00,31.9,25.5,29.89,WNW,293,0.0,20.0,77,0.00,,,0.00,Wunderground v.1.15,2013-03-27 01:02:00,
2013-03-26 21:08:00,32.6,25.6,29.90,WNW,297,1.0,20.0,75,0.00,,,0.00,Wunderground v.1.15,2013-03-27 01:08:00,
2013-03-26 21:14:00,33.9,25.1,29.90,WNW,298,2.0,20.0,70,0.00,,,0.00,Wunderground v.1.15,2013-03-27 01:14:00,
2013-03-26 21:19:00,35.1,25.2,29.90,WNW,298,3.0,20.0,67,0.00,,,0.00,Wunderground v.1.15,2013-03-27 01:19:00,
2013-03-26 21:25:00,35.7,25.1,29.90,WNW,299,3.0,20.0,65,0.00,,,0.00,Wunderground v.1.15,2013-03-27 01:25:00,
2013-03-26 21:31:00,36.1,24.7,29.90,WNW,294,4.0,20.0,63,0.00,,,0.00,Wunderground v.1.15,2013-03-27 01:31:00,
2013-03-26 21:37:00,36.1,24.7,29.90,WNW,296,4.0,20.0,63,0.00,,,0.00,Wunderground v.1.15,2013-03-27 01:37:00,
2013-03-26 21:43:00,36.1,24.7,29.91,WNW,296,5.0,20.0,63,0.00,,,0.00,Wunderground v.1.15,2013-03-27 01:43:00,
2013-03-26 21:48:00,36.0,24.2,29.91,WNW,294,5.0,20.0,62,0.00,,,0.00,Wunderground v.1.15,2013-03-27 01:48:00,
2013-03-26 21:54:00,35.9,24.5,29.91,WNW,296,5.0,20.0,63,0.00,,,0.00,Wunderground v.1.15,2013-03-27 01:54:00,
2013-03-26 22:00:00,35.8,24.4,29.91,WNW,298,5.0,5.0,63,0.00,,,0.00,Wunderground v.1.15,2013-03-27 02:00:00,
2013-03-26 22:06:00,35.6,24.2,29.91,WNW,299,4.0,20.0,63,0.00,,,0.00,Wunderground v.1.15,2013-03-27 02:06:00,
2013-03-26 22:12:00,35.5,24.1,29.91,WNW,298,4.0,20.0,63,0.00,,,0.00,Wunderground v.1.15,2013-03-27 02:12:00,
2013-03-26 22:17:00,35.5,24.1,29.91,WNW,296,4.0,20.0,63,0.00,,,0.00,Wunderground v.1.15,2013-03-27 02:17:00,
2013-03-26 22:23:00,35.5,23.8,29.92,WNW,296,4.0,20.0,62,0.00,,,0.00,Wunderground v.1.15,2013-03-27 02:23:00,
2013-03-26 22:28:00,35.5,23.8,29.92,WNW,294,3.0,20.0,62,0.00,,,0.00,Wunderground v.1.15,2013-03-27 02:28:00,
2013-03-26 22:34:00,35.4,23.7,29.92,WNW,294,3.0,20.0,62,0.00,,,0.00,Wunderground v.1.15,2013-03-27 02:34:00,
2013-03-26 22:40:00,35.3,23.6,29.92,WNW,301,3.0,20.0,62,0.00,,,0.00,Wunderground v.1.15,2013-03-27 02:40:00,
2013-03-26 22:45:00,35.1,23.4,29.92,WNW,302,3.0,20.0,62,0.00,,,0.00,Wunderground v.1.15,2013-03-27 02:45:00,
2013-03-26 22:50:00,35.0,23.3,29.92,WNW,300,3.0,20.0,62,0.00,,,0.00,Wunderground v.1.15,2013-03-27 02:50:00,
2013-03-26 22:57:00,34.7,23.0,29.92,WNW,301,3.0,20.0,62,0.00,,,0.00,Wunderground v.1.15,2013-03-27 02:57:00,
2013-03-26 23:03:00,34.6,22.9,29.93,WNW,294,3.0,20.0,62,0.00,,,0.00,Wunderground v.1.15,2013-03-27 03:03:00,
2013-03-26 23:09:00,34.6,23.3,29.93,WNW,294,3.0,20.0,63,0.00,,,0.00,Wunderground v.1.15,2013-03-27 03:09:00,
2013-03-26 23:14:00,34.4,23.1,29.93,WNW,294,3.0,20.0,63,0.00,,,0.00,Wunderground v.1.15,2013-03-27 03:14:00,
2013-03-26 23:20:00,34.3,23.0,29.93,WNW,294,2.0,2.0,63,0.00,,,0.00,Wunderground v.1.15,2013-03-27 03:20:00,
2013-03-26 23:26:00,34.3,22.6,29.93,WNW,294,2.0,20.0,62,0.00,,,0.00,Wunderground v.1.15,2013-03-27 03:26:00,
2013-03-26 23:32:00,34.2,22.5,29.93,WNW,294,2.0,20.0,62,0.00,,,0.00,Wunderground v.1.15,2013-03-27 03:32:00,
2013-03-26 23:37:00,34.2,22.5,29.93,WNW,294,2.0,20.0,62,0.00,,,0.00,Wunderground v.1.15,2013-03-27 03:37:00,
2013-03-26 23:42:00,34.1,22.4,29.93,WNW,293,3.0,20.0,62,0.00,,,0.00,Wunderground v.1.15,2013-03-27 03:42:00,
2013-03-26 23:47:00,34.1,22.4,29.93,WNW,295,4.0,20.0,62,0.00,,,0.00,Wunderground v.1.15,2013-03-27 03:47:00,
2013-03-26 23:53:00,34.1,22.4,29.93,WNW,295,5.0,20.0,62,0.00,,,0.00,Wunderground v.1.15,2013-03-27 03:53:00,
2013-03-26 23:58:00,34.1,22.4,29.93,WNW,299,6.0,20.0,62,0.00,,,0.00,Wunderground v.1.15,2013-03-27 03:58:00,